Regional Weather Roundup
Issued by NWS

Home | Current Version | Previous Version | Text Only | Print | Product List | Glossary On
Versions: 1 2 3 4 5 6 7 8 9 10 11 12 13 14 15 16 17 18 19 20 21 22 23 24 25 26 27 28 29 30 31 32 33 34 35 36 37 38 39 40 41 42 43 44 45 46 47 48 49 50
000
ASHW40 PHFO 222343
RWRHI

WEATHER ROUNDUP FOR HAWAII
NATIONAL WEATHER SERVICE HONOLULU HI
100 PM HST WED FEB 22 2017

THIS IS AN AUTOMATED REPORT THAT HAS NOT BEEN QUALITY CONTROLLED.

NOTE..."FAIR" INDICATES FEW OR NO CLOUDS BELOW 12,000 FEET WITH NO
SIGNIFICANT WEATHER AND/OR OBSTRUCTIONS TO VISIBILITY.

* - THESE SITES REPORT LIMITED FIELDS

HIZ001>004-230000-
KAUAI-NIIHAU-

CITY           SKY/WX    TMP DP  RH WIND       PRES   REMARKS
LIHUE APT      MOSUNNY   77  60  55 E17       30.24F
PORT ALLEN*      N/A     79 N/A N/A NE24G35     N/A
POIPU*           N/A     79 N/A N/A NE10G21     N/A
PRINCEVILLE*     N/A     75 N/A N/A E12G20      N/A
KOKOLE POINT*  NOT AVBL
MOLOAA DAIRY*    N/A     79  61  53 E6G15       N/A
WAIMEA HTS*      N/A     81  59  47 S5G14       N/A
PUU OPAE*      NOT AVBL
PUU LUA*       NOT AVBL
MAKAHA RIDGE*    N/A     72  57  60 W3          N/A
$$

HIZ005>011-230000-
OAHU-

CITY           SKY/WX    TMP DP  RH WIND       PRES   REMARKS
HONOLULU       MOSUNNY   79  58  48 NE16G26   30.20F
KALAELOA       MOSUNNY   81  59  47 NE12G22   30.21F
KANEOHE MCB    NOT AVBL
WHEELER FIELD  MOSUNNY   74  59  59 E12       30.21F
BELLOWS*         N/A    N/A N/A N/A NE20        N/A
KAHUKU*          N/A    N/A N/A N/A NE13G24     N/A
WHEELER*         N/A    N/A N/A N/A NE12G18     N/A
WAIANAE HARBOR   N/A    N/A N/A N/A NE9G18      N/A
DILLINGHAM*    NOT AVBL
KAHUKU TRN*      N/A     68  52  56 W12G26      N/A
KAWAILOA*        N/A     72  59  64 E15G35      N/A
KII*             N/A     75  61  60 E21G28      N/A
MAKUA RANGE*     N/A     81  59  47 W12G21      N/A
OAHU FOREST NW   N/A     68  57  68 CALM        N/A
SCHOFIELD BRK*   N/A     61  45  55 MISG        N/A
SCHOFIELD S*   NOT AVBL
WAIANAE VLY*     N/A     75  57  53 VRB8G18     N/A
KUAOKALA*        N/A     72   1   6 NE24G41     N/A
HONOULIUULI*   NOT AVBL
MOKUOLOE IS*   NOT AVBL
PALEHUA*         N/A     66  55  68 NE10G25     N/A
WAIAWA PHB*    NOT AVBL
$$

HIZ012>013-230000-
MOLOKAI-

CITY           SKY/WX    TMP DP  RH WIND       PRES   REMARKS
MOLOKAI AIRPT  MOSUNNY   78  59  51 NE21G37   30.19F
KALAUPAPA      NOT AVBL
MAKAPULAPAI*     N/A     79  61  53 E21G35      N/A
MOLOKAI 1*       N/A     66  55  68 NE6         N/A
PUU ALII*        N/A     59  55  86 N2G15       N/A
$$

HIZ016-230000-
KAHOOLAWE-

CITY           SKY/WX    TMP DP  RH WIND       PRES   REMARKS
KAHOOLAWE*     NOT AVBL
HAKIOAWA*        N/A     74  61  63 MISG      30.58F
HONOKANAIA*      N/A     77  59  53 NE21G35   30.14F
KANELOA*         N/A     75  61  60 E25G36    30.26F
KEALIALALO*    NOT AVBL
LUA MAKIKA*    NOT AVBL
$$

HIZ014>015-230000-
LANAI-

CITY           SKY/WX    TMP DP  RH WIND       PRES   REMARKS
LANAI CITY       N/A     74  57  55 NE16      30.21F
LANAI 1*       NOT AVBL
$$

HIZ017>028-230000-
MAUI-

CITY           SKY/WX    TMP DP  RH WIND       PRES   REMARKS
KAHULUI        MOSUNNY   79  60  52 E18G32    30.19F
KAPALUA-W MAUI MOSUNNY   77  57  50 NE23G35   30.19F
HANA AIRPORT   CLOUDY    75  64  69 NE13      30.23F
HANA*            N/A     75 N/A N/A NE12G21     N/A
HALEAKALA SUMM   N/A     52  14  22 NW2G18      N/A
MAALAEA BAY*     N/A     79 N/A N/A N23G32      N/A
HALEAKALA*     NOT AVBL
KAUPO GAP*       N/A     81  66  61 S6G16       N/A
KULA 1*          N/A     59  50  71 W6          N/A
$$

HIZ023>026-230000-
BIG ISLAND OF HAWAII COAST AND LOWER SLOPES-

CITY           SKY/WX    TMP DP  RH WIND       PRES   REMARKS
KAILUA KONA    MOSUNNY   79  63  57 SW10      30.13F
HILO           PTSUNNY   78  55  44 NE12      30.21F
HONOKAA*         N/A     70 N/A N/A VRB1        N/A
KAWAIHAE MWT*    N/A     81 N/A N/A W13         N/A
KAWAIHAE*        N/A     77 N/A N/A W10       30.11F
SOUTH POINT*     N/A     75 N/A N/A VRB23G35    N/A
UPOLU AIRPORT* NOT AVBL
KAMUELA*       PTCLDY    70  54  56 NE29      30.21F
HAKALAU*         N/A     53  51  94 E5          N/A
KALOKO-HONOKO*   N/A     81  64  57 SW8       30.12F
PALI 2*          N/A     68  54  60 SW26G36     N/A
KEALAKOMO*       N/A     82  54  36 N22G33      N/A
KAUPULEHU*       N/A     81  54  39 VRB15G29    N/A
KAPAPALA*        N/A     78  56  47 SE12G26     N/A
LOWER KAHUKU*    N/A     64  55  72 NE3G15      N/A
PUHE CS*         N/A     82  57  42 W3G13       N/A
PUHO CS*         N/A     82  63  52 W3G9        N/A
PTA KEAMUKU*     N/A     64  52  63 CALM        N/A
WAIKOLOA*        N/A     77  55  47 NE18G35     N/A
$$

HIZ027>028-230000-
BIG ISLAND OF HAWAII INTERIOR AND SUMMMITS-

CITY           SKY/WX    TMP DP  RH WIND       PRES   REMARKS
BRADSHAW FIELD SUNNY     64  42  45 SW12G17   30.40F
MK VISITOR CEN   N/A     50  10  20 S12         N/A
MAUNA KEA*       N/A     28  12  50 W1G18       N/A
MAUNA LOA*       N/A    N/A N/A N/A MISG        N/A
MAUNA LOA 1*   NOT AVBL
PTA KIPUKA*      N/A    N/A N/A N/A NW8G17      N/A
PTA RANGE 17*    N/A     66  36  32 SE5G18      N/A
PTA WEST*        N/A     70  50  49 NW12G24     N/A
NENE CABIN*      N/A     54  39  58 SE7G16      N/A
AHUMOA*          N/A     62  41  46 SW7G16      N/A
PTA PORTABLE*  NOT AVBL
PUU MALI*        N/A    N/A N/A N/A NE13G21     N/A
$$

HIC003-230000-
NORTHWEST ISLANDS-

CITY           SKY/WX    TMP DP  RH WIND       PRES   REMARKS
MIDWAY ISLAND  MOSUNNY   72  70  94 S23       30.13F FOG
MIDWAY NOS*      N/A     72 N/A N/A MISG      30.12F
FRENCH FRIGATE NOT AVBL
$$

PHZ110>124-180-230000-
BUOY REPORTS

STATION/POSITION TIME  TEMP    WIND        PRES    WAVE   SWELL
                       AIR SEA DIR/SP/G            HT/PER HT/DIR
                 (UTC) (F)     (DEG/KT/KT) (MB)    (FT/S) (FT/D)
BUOY 51001       2320   71 72   80/ 14/ 17 1025.3
BUOY 51101       2250   71 72   70/ 16/ 17 1026.0F   7/15   5/280
BUOY 51100       NOT AVBL
BUOY 51002       2320   76 77   60/ 23/ 29 1018.8
BUOY 51003       2150   75 77   70/ 17/ 21 1021.8    9/ 8   5/230
BUOY 51004       2250      77   50/ 21/ 27 1019.0F  10/ 8   5/ 20
BARBERS PT BUOY  NOT AVBL
WAIMEA BAY BUOY  2302      74                N/A     6/ 9   2/360
KAILUA BAY BUOY  2304      75                N/A     8/ 7   2/ 60
LANAI BUOY       2315      76                N/A     3/ 8
BARBERS PT 2     NOT AVBL
PAUWELA MAUI     2309      75                N/A     8/ 7   2/ 20
HILO             2312      76                N/A     9/ 8   2/ 30
KANEOHE BAY BUOY 2306      75                N/A     7/ 8   2/ 10
HANALEI KAUAI    2322      76                N/A     8/ 8   3/310
KAHULUI HARBOR   2312   74 74   50/ 18/ 25 1022.1
HONOLULU HARBOR  2312   76 75   50/  8/ 12 1022.9
KILO NALU        NOT AVBL
HILO HARBOR      2312   77 75   40/  9/ 13 1022.3
MOKUOLOE         2236   74 74   60/ 13/ 17 1023.9F
NAWILIWILI       2312   74 77   50/ 13/ 17 1023.3
WHOTS BUOY       NOT AVBL
BUOY 51028       NOT AVBL
$$

......................KEY........................................
  SKY/WX - SKY CONDITIONS/PRESENT WEATHER
  TMP    - TEMPERATURE IN FAHRENHEIT
  DWPT   - DEWPOINT IN FAHRENHEIT
  RH     - RELATIVE HUMIDITY IN PERCENT
  WIND   - DIRECTION AND SPEED /MPH FOR ISLANDS...KTS FOR BUOYS/
  PRES   - MEAN SEA LEVEL PRESSURE IN INCHES OF HG
  VSB    - VISIBILITY IN MILES
  HX     - HEAT INDEX
  WCI    - WIND CHILL INDEX
  VRB    - VARIABLE WIND DIRECTION
  N/A    - NOT AVAILABLE



USA.gov is the U.S. government's official web portal to all federal, state and local government web resources and services.